Weather in Rautalakhti

Russia / Republic of Karelia     61°45′22″N   30°53′27″E
temp.,
°C
wind,
m/s
gust,
m/s
humid.,
%
clouds,
%
prec.,
mm/h
press.,
hPa
HPBL,
m
6 august, fri
fri600:00+11ne247973 0.0 101768
03:00+13ne267396 0.0 1017154
06:00+11ne377718 0.0 1017164
09:00+17ene475312 0.0 1017597
12:00+20ene573954 0.0 10172263
15:00+19ese4747100 0.0 10171273
18:00+20ese384349 0.0 10162034
21:00+14ene23675 0.0 101745
7 august, sat
sat700:00+11ne310776 0.0 1016208
03:00+11ene4137925 0.0 1016355
06:00+12ene5138539 0.0 1016582
09:00+15e6117498 0.0 1015850
12:00+20e6105789 0.0 10131222
15:00+21e71058100 0.0 10121283
18:00+18e61272100 0.0 10121024
21:00+15ene61492100 1.4 1011822
8 august, sun
sun800:00+15e71595100 1.8 1010979
03:00+15e61396100 2.8 1010779
06:00+15e51197100 0.3 1010548
09:00+15e41097100 1.1 1010542
12:00+15e3898100 0.3 1011508
15:00+16ese259568 0.4 1013368
18:00+19sse237340 0.1 1013728
21:00+15ese129465 0.1 101425
9 august, mon
mon900:00+14ene3598100 0.0 1015122
03:00+13e3699100 0.0 1015176
06:00+13e369972 0.0 1015192
09:00+17ese3582100 0.0 1015428
12:00+21se466672 0.0 1015859
15:00+20sse4867100 0.0 1015623
18:00+20ese497089 0.0 1013435
21:00+17se269644 0.9 1014159
10 august, tue
tue1000:00+16sse259846 0.4 1014108
03:00+16ssw389988 0.7 1014294
06:00+16sw469298 0.0 1015387
09:00+18ssw368746 0.0 1017489
12:00+20s457111 0.0 1017811
15:00+21s456199 0.0 1017838
18:00+20sse4868100 0.0 1017409
21:00+17sse2483100 0.0 101798